Year,Month,Day,Hour,Minute,Value (Times are PST for temperature in C)
2018,07,27,00,00,20.50
2018,07,27,00,01,20.60
2018,07,27,00,02,20.60
2018,07,27,00,03,20.60
2018,07,27,00,04,20.50
2018,07,27,00,05,20.50
2018,07,27,00,06,20.50
2018,07,27,00,07,20.40
2018,07,27,00,08,20.40
2018,07,27,00,09,20.30
2018,07,27,00,10,20.30
2018,07,27,00,11,20.30
2018,07,27,00,12,20.20
2018,07,27,00,13,20.20
2018,07,27,00,14,20.10
2018,07,27,00,15,20.10
2018,07,27,00,16,20.00
2018,07,27,00,17,20.00
2018,07,27,00,18,19.90
2018,07,27,00,19,19.90
2018,07,27,00,20,19.90
2018,07,27,00,21,19.80
2018,07,27,00,22,19.80
2018,07,27,00,23,19.80
2018,07,27,00,24,19.80
2018,07,27,00,25,19.80
2018,07,27,00,26,19.70
2018,07,27,00,27,19.70
2018,07,27,00,28,19.70
2018,07,27,00,29,19.70
2018,07,27,00,30,19.70
2018,07,27,00,31,19.70
2018,07,27,00,32,19.80
2018,07,27,00,33,19.80
2018,07,27,00,34,19.80
2018,07,27,00,35,19.90
2018,07,27,00,36,20.00
2018,07,27,00,37,20.00
2018,07,27,00,38,20.10
2018,07,27,00,39,20.10
2018,07,27,00,40,20.10
2018,07,27,00,41,20.10
2018,07,27,00,42,20.10
2018,07,27,00,43,20.10
2018,07,27,00,44,20.10
2018,07,27,00,45,20.10
2018,07,27,00,46,20.10
2018,07,27,00,47,20.10
2018,07,27,00,48,20.00
2018,07,27,00,49,20.00
2018,07,27,00,50,19.90
2018,07,27,00,51,19.90
2018,07,27,00,52,19.80
2018,07,27,00,53,19.80
2018,07,27,00,54,19.70
2018,07,27,00,55,19.70
2018,07,27,00,56,19.60
2018,07,27,00,57,19.50
2018,07,27,00,58,19.50
2018,07,27,00,59,19.40
2018,07,27,01,00,19.30
2018,07,27,01,01,19.30
2018,07,27,01,02,19.30
2018,07,27,01,03,19.20
2018,07,27,01,04,19.20
2018,07,27,01,05,19.10
2018,07,27,01,06,19.10
2018,07,27,01,07,19.00
2018,07,27,01,08,19.00
2018,07,27,01,09,19.00
2018,07,27,01,10,19.00
2018,07,27,01,11,19.00
2018,07,27,01,12,18.90
2018,07,27,01,13,18.90
2018,07,27,01,14,18.90
2018,07,27,01,15,18.90
2018,07,27,01,16,18.90
2018,07,27,01,17,18.90
2018,07,27,01,18,18.90
2018,07,27,01,19,18.80
2018,07,27,01,20,18.80
2018,07,27,01,21,18.80
2018,07,27,01,22,18.80
2018,07,27,01,23,18.80
2018,07,27,01,24,18.80
2018,07,27,01,25,18.70
2018,07,27,01,26,18.70
2018,07,27,01,27,18.70
2018,07,27,01,28,18.70
2018,07,27,01,29,18.70
2018,07,27,01,30,18.70
2018,07,27,01,31,18.60
2018,07,27,01,32,18.60
2018,07,27,01,33,18.60
2018,07,27,01,34,18.50
2018,07,27,01,35,18.50
2018,07,27,01,36,18.50
2018,07,27,01,37,18.50
2018,07,27,01,38,18.40
2018,07,27,01,39,18.40
2018,07,27,01,40,18.40
2018,07,27,01,41,18.40
2018,07,27,01,42,18.40
2018,07,27,01,43,18.40
2018,07,27,01,44,18.40
2018,07,27,01,45,18.40
2018,07,27,01,46,18.40
2018,07,27,01,47,18.40
2018,07,27,01,48,18.40
2018,07,27,01,49,18.40
2018,07,27,01,50,18.40
2018,07,27,01,51,18.40
2018,07,27,01,52,18.40
2018,07,27,01,53,18.30
2018,07,27,01,54,18.30
2018,07,27,01,55,18.30
2018,07,27,01,56,18.30
2018,07,27,01,57,18.20
2018,07,27,01,58,18.20
2018,07,27,01,59,18.20
2018,07,27,02,00,18.20
2018,07,27,02,01,18.20
2018,07,27,02,02,18.20
2018,07,27,02,03,18.20
2018,07,27,02,04,18.20
2018,07,27,02,05,18.20
2018,07,27,02,06,18.20
2018,07,27,02,07,18.20
2018,07,27,02,08,18.20
2018,07,27,02,09,18.20
2018,07,27,02,10,18.20
2018,07,27,02,11,18.20
2018,07,27,02,12,18.20
2018,07,27,02,13,18.20
2018,07,27,02,14,18.20
2018,07,27,02,15,18.20
2018,07,27,02,16,18.20
2018,07,27,02,17,18.20
2018,07,27,02,18,18.20
2018,07,27,02,19,18.10
2018,07,27,02,20,18.10
2018,07,27,02,21,18.10
2018,07,27,02,22,18.10
2018,07,27,02,23,18.00
2018,07,27,02,24,18.00
2018,07,27,02,25,18.00
2018,07,27,02,26,18.00
2018,07,27,02,27,18.00
2018,07,27,02,28,17.90
2018,07,27,02,29,17.90
2018,07,27,02,30,17.90
2018,07,27,02,31,17.90
2018,07,27,02,32,17.90
2018,07,27,02,33,17.90
2018,07,27,02,34,17.90
2018,07,27,02,35,17.90
2018,07,27,02,36,17.90
2018,07,27,02,37,17.90
2018,07,27,02,38,17.90
2018,07,27,02,39,17.80
2018,07,27,02,40,17.80
2018,07,27,02,41,17.80
2018,07,27,02,42,17.80
2018,07,27,02,43,17.80
2018,07,27,02,44,17.80
2018,07,27,02,45,17.80
2018,07,27,02,46,17.80
2018,07,27,02,47,17.70
2018,07,27,02,48,17.70
2018,07,27,02,49,17.70
2018,07,27,02,50,17.70
2018,07,27,02,51,17.70
2018,07,27,02,52,17.60
2018,07,27,02,53,17.60
2018,07,27,02,54,17.60
2018,07,27,02,55,17.60
2018,07,27,02,56,17.60
2018,07,27,02,57,17.60
2018,07,27,02,58,17.60
2018,07,27,02,59,17.60
2018,07,27,03,00,17.60
2018,07,27,03,01,17.60
2018,07,27,03,02,17.60
2018,07,27,03,03,17.60
2018,07,27,03,04,17.60
2018,07,27,03,05,17.60
2018,07,27,03,06,17.70
2018,07,27,03,07,17.70
2018,07,27,03,08,17.70
2018,07,27,03,09,17.70
2018,07,27,03,10,17.70
2018,07,27,03,11,17.70
2018,07,27,03,12,17.70
2018,07,27,03,13,17.70
2018,07,27,03,14,17.60
2018,07,27,03,15,17.60
2018,07,27,03,16,17.60
2018,07,27,03,17,17.60
2018,07,27,03,18,17.60
2018,07,27,03,19,17.50
2018,07,27,03,20,17.50
2018,07,27,03,21,17.50
2018,07,27,03,22,17.40
2018,07,27,03,23,17.40
2018,07,27,03,24,17.40
2018,07,27,03,25,17.40
2018,07,27,03,26,17.30
2018,07,27,03,27,17.30
2018,07,27,03,28,17.30
2018,07,27,03,29,17.30
2018,07,27,03,30,17.30
2018,07,27,03,31,17.30
2018,07,27,03,32,17.40
2018,07,27,03,33,17.40
2018,07,27,03,34,17.40
2018,07,27,03,35,17.40
2018,07,27,03,36,17.40
2018,07,27,03,37,17.40
2018,07,27,03,38,17.30
2018,07,27,03,39,17.30
2018,07,27,03,40,17.30
2018,07,27,03,41,17.20
2018,07,27,03,42,17.20
2018,07,27,03,43,17.20
2018,07,27,03,44,17.20
2018,07,27,03,45,17.20
2018,07,27,03,46,17.30
2018,07,27,03,47,17.30
2018,07,27,03,48,17.30
2018,07,27,03,49,17.30
2018,07,27,03,50,17.30
2018,07,27,03,51,17.30
2018,07,27,03,52,17.30
2018,07,27,03,53,17.30
2018,07,27,03,54,17.30
2018,07,27,03,55,17.30
2018,07,27,03,56,17.30
2018,07,27,03,57,17.30
2018,07,27,03,58,17.30
2018,07,27,03,59,17.30
2018,07,27,04,00,17.30
2018,07,27,04,01,17.30
2018,07,27,04,02,17.30
2018,07,27,04,03,17.20
2018,07,27,04,04,17.20
2018,07,27,04,05,17.20
2018,07,27,04,06,17.20
2018,07,27,04,07,17.10
2018,07,27,04,08,17.10
2018,07,27,04,09,17.10
2018,07,27,04,10,17.10
2018,07,27,04,11,17.10
2018,07,27,04,12,17.10
2018,07,27,04,13,17.20
2018,07,27,04,14,17.20
2018,07,27,04,15,17.20
2018,07,27,04,16,17.20
2018,07,27,04,17,17.20
2018,07,27,04,18,17.10
2018,07,27,04,19,17.10
2018,07,27,04,20,17.00
2018,07,27,04,21,17.00
2018,07,27,04,22,17.00
2018,07,27,04,23,17.00
2018,07,27,04,24,17.10
2018,07,27,04,25,17.10
2018,07,27,04,26,17.00
2018,07,27,04,27,16.90
2018,07,27,04,28,16.90
2018,07,27,04,29,16.90
2018,07,27,04,30,17.00
2018,07,27,04,31,17.00
2018,07,27,04,32,17.10
2018,07,27,04,33,17.10
2018,07,27,04,34,17.10
2018,07,27,04,35,17.10
2018,07,27,04,36,17.10
2018,07,27,04,37,17.20
2018,07,27,04,38,17.10
2018,07,27,04,39,17.10
2018,07,27,04,40,17.10
2018,07,27,04,41,17.10
2018,07,27,04,42,17.10
2018,07,27,04,43,17.10
2018,07,27,04,44,17.00
2018,07,27,04,45,17.00
2018,07,27,04,46,17.00
2018,07,27,04,47,17.10
2018,07,27,04,48,17.00
2018,07,27,04,49,17.00
2018,07,27,04,50,17.00
2018,07,27,04,51,17.00
2018,07,27,04,52,16.90
2018,07,27,04,53,16.90
2018,07,27,04,54,16.90
2018,07,27,04,55,16.90
2018,07,27,04,56,16.80
2018,07,27,04,57,16.80
2018,07,27,04,58,16.80
2018,07,27,04,59,16.70
2018,07,27,05,00,16.70
2018,07,27,05,01,16.60
2018,07,27,05,02,16.60
2018,07,27,05,03,16.60
2018,07,27,05,04,16.60
2018,07,27,05,05,16.50
2018,07,27,05,06,16.50
2018,07,27,05,07,16.60
2018,07,27,05,08,16.60
2018,07,27,05,09,16.60
2018,07,27,05,10,16.60
2018,07,27,05,11,16.60
2018,07,27,05,12,16.60
2018,07,27,05,13,16.70
2018,07,27,05,14,16.70
2018,07,27,05,15,16.70
2018,07,27,05,16,16.70
2018,07,27,05,17,16.70
2018,07,27,05,18,16.70
2018,07,27,05,19,16.70
2018,07,27,05,20,16.70
2018,07,27,05,21,16.70
2018,07,27,05,22,16.70
2018,07,27,05,23,16.70
2018,07,27,05,24,16.70
2018,07,27,05,25,16.70
2018,07,27,05,26,16.70
2018,07,27,05,27,16.80
2018,07,27,05,28,16.80
2018,07,27,05,29,16.80
2018,07,27,05,30,16.80
2018,07,27,05,31,16.80
2018,07,27,05,32,16.90
2018,07,27,05,33,16.90
2018,07,27,05,34,16.90
2018,07,27,05,35,16.90
2018,07,27,05,36,16.90
2018,07,27,05,37,16.90
2018,07,27,05,38,16.90
2018,07,27,05,39,16.90
2018,07,27,05,40,16.90
2018,07,27,05,41,16.90
2018,07,27,05,42,16.90
2018,07,27,05,43,16.90
2018,07,27,05,44,16.80
2018,07,27,05,45,16.80
2018,07,27,05,46,16.70
2018,07,27,05,47,16.60
2018,07,27,05,48,16.50
2018,07,27,05,49,16.50
2018,07,27,05,50,16.50
2018,07,27,05,51,16.50
2018,07,27,05,52,16.60
2018,07,27,05,53,16.60
2018,07,27,05,54,16.60
2018,07,27,05,55,16.60
2018,07,27,05,56,16.60
2018,07,27,05,57,16.60
2018,07,27,05,58,16.60
2018,07,27,05,59,16.60
2018,07,27,06,00,16.60
2018,07,27,06,01,16.50
2018,07,27,06,02,16.50
2018,07,27,06,03,16.40
2018,07,27,06,04,16.40
2018,07,27,06,05,16.30
2018,07,27,06,06,16.30
2018,07,27,06,07,16.30
2018,07,27,06,08,16.30
2018,07,27,06,09,16.40
2018,07,27,06,10,16.50
2018,07,27,06,11,16.50
2018,07,27,06,12,16.50
2018,07,27,06,13,16.60
2018,07,27,06,14,16.50
2018,07,27,06,15,16.50
2018,07,27,06,16,16.50
2018,07,27,06,17,16.40
2018,07,27,06,18,16.40
2018,07,27,06,19,16.40
2018,07,27,06,20,16.40
2018,07,27,06,21,16.30
2018,07,27,06,22,16.40
2018,07,27,06,23,16.40
2018,07,27,06,24,16.50
2018,07,27,06,25,16.60
2018,07,27,06,26,16.70
2018,07,27,06,27,16.70
2018,07,27,06,28,16.80
2018,07,27,06,29,16.80
2018,07,27,06,30,16.80
2018,07,27,06,31,16.80
2018,07,27,06,32,16.80
2018,07,27,06,33,16.70
2018,07,27,06,34,16.70
2018,07,27,06,35,16.70
2018,07,27,06,36,16.70
2018,07,27,06,37,16.60
2018,07,27,06,38,16.60
2018,07,27,06,39,16.50
2018,07,27,06,40,16.50
2018,07,27,06,41,16.50
2018,07,27,06,42,16.50
2018,07,27,06,43,16.40
2018,07,27,06,44,16.40
2018,07,27,06,45,16.40
2018,07,27,06,46,16.30
2018,07,27,06,47,16.30
2018,07,27,06,48,16.30
2018,07,27,06,49,16.30
2018,07,27,06,50,16.30
2018,07,27,06,51,16.30
2018,07,27,06,52,16.30
2018,07,27,06,53,16.30
2018,07,27,06,54,16.40
2018,07,27,06,55,16.40
2018,07,27,06,56,16.40
2018,07,27,06,57,16.40
2018,07,27,06,58,16.40
2018,07,27,06,59,16.50
2018,07,27,07,00,16.50
2018,07,27,07,01,16.60
2018,07,27,07,02,16.60
2018,07,27,07,03,16.60
2018,07,27,07,04,16.60
2018,07,27,07,05,16.60
2018,07,27,07,06,16.60
2018,07,27,07,07,16.60
2018,07,27,07,08,16.60
2018,07,27,07,09,16.60
2018,07,27,07,10,16.60
2018,07,27,07,11,16.60
2018,07,27,07,12,16.60
2018,07,27,07,13,16.60
2018,07,27,07,14,16.60
2018,07,27,07,15,16.60
2018,07,27,07,16,16.60
2018,07,27,07,17,16.60
2018,07,27,07,18,16.60
2018,07,27,07,19,16.70
2018,07,27,07,20,16.70
2018,07,27,07,21,16.70
2018,07,27,07,22,16.80
2018,07,27,07,23,16.80
2018,07,27,07,24,16.80
2018,07,27,07,25,16.80
2018,07,27,07,26,16.90
2018,07,27,07,27,16.90
2018,07,27,07,28,16.90
2018,07,27,07,29,16.90
2018,07,27,07,30,17.00
2018,07,27,07,31,17.00
2018,07,27,07,32,17.10
2018,07,27,07,33,17.10
2018,07,27,07,34,17.20
2018,07,27,07,35,17.20
2018,07,27,07,36,17.30
2018,07,27,07,37,17.40
2018,07,27,07,38,17.50
2018,07,27,07,39,17.50
2018,07,27,07,40,17.60
2018,07,27,07,41,17.70
2018,07,27,07,42,17.70
2018,07,27,07,43,17.80
2018,07,27,07,44,17.80
2018,07,27,07,45,17.90
2018,07,27,07,46,18.00
2018,07,27,07,47,18.00
2018,07,27,07,48,18.10
2018,07,27,07,49,18.20
2018,07,27,07,50,18.20
2018,07,27,07,51,18.30
2018,07,27,07,52,18.30
2018,07,27,07,53,18.50
2018,07,27,07,54,18.60
2018,07,27,07,55,18.70
2018,07,27,07,56,18.90
2018,07,27,07,57,19.00
2018,07,27,07,58,19.20
2018,07,27,07,59,19.30
2018,07,27,08,00,19.40
2018,07,27,08,01,19.50
2018,07,27,08,02,19.70
2018,07,27,08,03,19.70
2018,07,27,08,04,19.80
2018,07,27,08,05,19.90
2018,07,27,08,06,19.90
2018,07,27,08,07,20.00
2018,07,27,08,08,20.10
2018,07,27,08,09,20.10
2018,07,27,08,10,20.20
2018,07,27,08,11,20.20
2018,07,27,08,12,20.30
2018,07,27,08,13,20.30
2018,07,27,08,14,20.30
2018,07,27,08,15,20.40
2018,07,27,08,16,20.40
2018,07,27,08,17,20.50
2018,07,27,08,18,20.50
2018,07,27,08,19,20.50
2018,07,27,08,20,20.60
2018,07,27,08,21,20.60
2018,07,27,08,22,20.70
2018,07,27,08,23,20.70
2018,07,27,08,24,20.80
2018,07,27,08,25,20.80
2018,07,27,08,26,20.80
2018,07,27,08,27,20.90
2018,07,27,08,28,20.90
2018,07,27,08,29,20.90
2018,07,27,08,30,20.90
2018,07,27,08,31,21.00
2018,07,27,08,32,21.00
2018,07,27,08,33,21.10
2018,07,27,08,34,21.10
2018,07,27,08,35,21.20
2018,07,27,08,36,21.20
2018,07,27,08,37,21.30
2018,07,27,08,38,21.30
2018,07,27,08,39,21.40
2018,07,27,08,40,21.40
2018,07,27,08,41,21.40
2018,07,27,08,42,21.40
2018,07,27,08,43,21.40
2018,07,27,08,44,21.40
2018,07,27,08,45,21.40
2018,07,27,08,46,21.40
2018,07,27,08,47,21.30
2018,07,27,08,48,21.30
2018,07,27,08,49,21.30
2018,07,27,08,50,21.30
2018,07,27,08,51,21.30
2018,07,27,08,52,21.20
2018,07,27,08,53,21.20
2018,07,27,08,54,21.20
2018,07,27,08,55,21.20
2018,07,27,08,56,21.20
2018,07,27,08,57,21.10
2018,07,27,08,58,21.20
2018,07,27,08,59,21.10
2018,07,27,09,00,21.20
2018,07,27,09,01,21.20
2018,07,27,09,02,21.20
2018,07,27,09,03,21.30
2018,07,27,09,04,21.40
2018,07,27,09,05,21.40
2018,07,27,09,06,21.50
2018,07,27,09,07,21.50
2018,07,27,09,08,21.60
2018,07,27,09,09,21.60
2018,07,27,09,10,21.70
2018,07,27,09,11,21.70
2018,07,27,09,12,21.80
2018,07,27,09,13,21.80
2018,07,27,09,14,21.90
2018,07,27,09,15,21.90
2018,07,27,09,16,22.00
2018,07,27,09,17,22.10
2018,07,27,09,18,22.20
2018,07,27,09,19,22.20
2018,07,27,09,20,22.30
2018,07,27,09,21,22.40
2018,07,27,09,22,22.50
2018,07,27,09,23,22.50
2018,07,27,09,24,22.60
2018,07,27,09,25,22.70
2018,07,27,09,26,22.80
2018,07,27,09,27,22.80
2018,07,27,09,28,22.90
2018,07,27,09,29,23.00
2018,07,27,09,30,23.10
2018,07,27,09,31,23.20
2018,07,27,09,32,23.30
2018,07,27,09,33,23.30
2018,07,27,09,34,23.30
2018,07,27,09,35,23.40
2018,07,27,09,36,23.40
2018,07,27,09,37,23.40
2018,07,27,09,38,23.50
2018,07,27,09,39,23.50
2018,07,27,09,40,23.50
2018,07,27,09,41,23.50
2018,07,27,09,42,23.50
2018,07,27,09,43,23.60
2018,07,27,09,44,23.60
2018,07,27,09,45,23.60
2018,07,27,09,46,23.70
2018,07,27,09,47,23.70
2018,07,27,09,48,23.80
2018,07,27,09,49,23.90
2018,07,27,09,50,23.90
2018,07,27,09,51,24.00
2018,07,27,09,52,24.10
2018,07,27,09,53,24.20
2018,07,27,09,54,24.30
2018,07,27,09,55,24.40
2018,07,27,09,56,24.50
2018,07,27,09,57,24.50
2018,07,27,09,58,24.60
2018,07,27,09,59,24.70
2018,07,27,10,00,24.70
2018,07,27,10,01,24.70
2018,07,27,10,02,24.70
2018,07,27,10,03,24.80
2018,07,27,10,04,24.80
2018,07,27,10,05,24.80
2018,07,27,10,06,24.90
2018,07,27,10,07,24.90
2018,07,27,10,08,24.90
2018,07,27,10,09,24.90
2018,07,27,10,10,24.90
2018,07,27,10,11,24.90
2018,07,27,10,12,24.90
2018,07,27,10,13,24.90
2018,07,27,10,14,24.80
2018,07,27,10,15,24.80
2018,07,27,10,16,24.70
2018,07,27,10,17,24.70
2018,07,27,10,18,24.70
2018,07,27,10,19,24.70
2018,07,27,10,20,24.70
2018,07,27,10,21,24.70
2018,07,27,10,22,24.70
2018,07,27,10,23,24.70
2018,07,27,10,24,24.70
2018,07,27,10,25,24.80
2018,07,27,10,26,24.80
2018,07,27,10,27,24.90
2018,07,27,10,28,24.90
2018,07,27,10,29,24.90
2018,07,27,10,30,24.90
2018,07,27,10,31,24.90
2018,07,27,10,32,24.90
2018,07,27,10,33,24.90
2018,07,27,10,34,24.90
2018,07,27,10,35,24.90
2018,07,27,10,36,25.00
2018,07,27,10,37,25.00
2018,07,27,10,38,25.00
2018,07,27,10,39,25.10
2018,07,27,10,40,25.10
2018,07,27,10,41,25.20
2018,07,27,10,42,25.20
2018,07,27,10,43,25.30
2018,07,27,10,44,25.30
2018,07,27,10,45,25.30
2018,07,27,10,46,25.30
2018,07,27,10,47,25.30
2018,07,27,10,48,25.30
2018,07,27,10,49,25.20
2018,07,27,10,50,25.20
2018,07,27,10,51,25.20
2018,07,27,10,52,25.20
2018,07,27,10,53,25.20
2018,07,27,10,54,25.20
2018,07,27,10,55,25.20
2018,07,27,10,56,25.20
2018,07,27,10,57,25.20
2018,07,27,10,58,25.20
2018,07,27,10,59,25.20
2018,07,27,11,00,25.30
2018,07,27,11,01,25.30
2018,07,27,11,02,25.30
2018,07,27,11,03,25.30
2018,07,27,11,04,25.30
2018,07,27,11,05,25.40
2018,07,27,11,06,25.40
2018,07,27,11,07,25.50
2018,07,27,11,08,25.50
2018,07,27,11,09,25.60
2018,07,27,11,10,25.70
2018,07,27,11,11,25.70
2018,07,27,11,12,25.70
2018,07,27,11,13,25.70
2018,07,27,11,14,25.70
2018,07,27,11,15,25.70
2018,07,27,11,16,25.80
2018,07,27,11,17,25.90
2018,07,27,11,18,26.00
2018,07,27,11,19,26.10
2018,07,27,11,20,26.10
2018,07,27,11,21,26.20
2018,07,27,11,22,26.20
2018,07,27,11,23,26.20
2018,07,27,11,24,26.10
2018,07,27,11,25,26.10
2018,07,27,11,26,26.10
2018,07,27,11,27,26.10
2018,07,27,11,28,26.00
2018,07,27,11,29,26.00
2018,07,27,11,30,26.00
2018,07,27,11,31,26.10
2018,07,27,11,32,26.10
2018,07,27,11,33,26.10
2018,07,27,11,34,26.10
2018,07,27,11,35,26.20
2018,07,27,11,36,26.20
2018,07,27,11,37,26.20
2018,07,27,11,38,26.20
2018,07,27,11,39,26.20
2018,07,27,11,40,26.30
2018,07,27,11,41,26.30
2018,07,27,11,42,26.30
2018,07,27,11,43,26.30
2018,07,27,11,44,26.40
2018,07,27,11,45,26.40
2018,07,27,11,46,26.40
2018,07,27,11,47,26.50
2018,07,27,11,48,26.50
2018,07,27,11,49,26.60
2018,07,27,11,50,26.70
2018,07,27,11,51,26.80
2018,07,27,11,52,26.80
2018,07,27,11,53,26.80
2018,07,27,11,54,26.80
2018,07,27,11,55,26.80
2018,07,27,11,56,26.80
2018,07,27,11,57,26.90
2018,07,27,11,58,26.90
2018,07,27,11,59,27.00
2018,07,27,12,00,27.10
2018,07,27,12,01,27.20
2018,07,27,12,02,27.30
2018,07,27,12,03,27.40
2018,07,27,12,04,27.30
2018,07,27,12,05,27.20
2018,07,27,12,06,27.20
2018,07,27,12,07,27.30
2018,07,27,12,08,27.30
2018,07,27,12,09,27.30
2018,07,27,12,10,27.40
2018,07,27,12,11,27.40
2018,07,27,12,12,27.40
2018,07,27,12,13,27.40
2018,07,27,12,14,27.40
2018,07,27,12,15,27.30
2018,07,27,12,16,27.40
2018,07,27,12,17,27.40
2018,07,27,12,18,27.40
2018,07,27,12,19,27.40
2018,07,27,12,20,27.50
2018,07,27,12,21,27.60
2018,07,27,12,22,27.60
2018,07,27,12,23,27.70
2018,07,27,12,24,27.70
2018,07,27,12,25,27.70
2018,07,27,12,26,27.70
2018,07,27,12,27,27.70
2018,07,27,12,28,27.70
2018,07,27,12,29,27.70
2018,07,27,12,30,27.70
2018,07,27,12,31,27.70
2018,07,27,12,32,27.80
2018,07,27,12,33,27.80
2018,07,27,12,34,27.80
2018,07,27,12,35,27.80
2018,07,27,12,36,27.80
2018,07,27,12,37,27.80
2018,07,27,12,38,27.80
2018,07,27,12,39,27.80
2018,07,27,12,40,27.90
2018,07,27,12,41,27.90
2018,07,27,12,42,27.90
2018,07,27,12,43,27.80
2018,07,27,12,44,27.70
2018,07,27,12,45,27.70
2018,07,27,12,46,27.70
2018,07,27,12,47,27.70
2018,07,27,12,48,27.80
2018,07,27,12,49,27.80
2018,07,27,12,50,27.90
2018,07,27,12,51,28.10
2018,07,27,12,52,28.10
2018,07,27,12,53,28.20
2018,07,27,12,54,28.30
2018,07,27,12,55,28.40
2018,07,27,12,56,28.40
2018,07,27,12,57,28.50
2018,07,27,12,58,28.50
2018,07,27,12,59,28.50
2018,07,27,13,00,28.40
2018,07,27,13,01,28.40
2018,07,27,13,02,28.30
2018,07,27,13,03,28.30
2018,07,27,13,04,28.40
2018,07,27,13,05,28.50
2018,07,27,13,06,28.60
2018,07,27,13,07,28.70
2018,07,27,13,08,28.80
2018,07,27,13,09,28.80
2018,07,27,13,10,28.80
2018,07,27,13,11,28.70
2018,07,27,13,12,28.80
2018,07,27,13,13,28.70
2018,07,27,13,14,28.70
2018,07,27,13,15,28.70
2018,07,27,13,16,28.70
2018,07,27,13,17,28.70
2018,07,27,13,18,28.70
2018,07,27,13,19,28.70
2018,07,27,13,20,28.80
2018,07,27,13,21,28.90
2018,07,27,13,22,29.00
2018,07,27,13,23,29.10
2018,07,27,13,24,29.10
2018,07,27,13,25,29.20
2018,07,27,13,26,29.30
2018,07,27,13,27,29.30
2018,07,27,13,28,29.40
2018,07,27,13,29,29.40
2018,07,27,13,30,29.40
2018,07,27,13,31,29.40
2018,07,27,13,32,29.30
2018,07,27,13,33,29.20
2018,07,27,13,34,29.20
2018,07,27,13,35,29.20
2018,07,27,13,36,29.20
2018,07,27,13,37,29.20
2018,07,27,13,38,29.20
2018,07,27,13,39,29.10
2018,07,27,13,40,29.10
2018,07,27,13,41,29.10
2018,07,27,13,42,29.10
2018,07,27,13,43,29.20
2018,07,27,13,44,29.20
2018,07,27,13,45,29.20
2018,07,27,13,46,29.30
2018,07,27,13,47,29.30
2018,07,27,13,48,29.40
2018,07,27,13,49,29.50
2018,07,27,13,50,29.60
2018,07,27,13,51,29.70
2018,07,27,13,52,29.80
2018,07,27,13,53,29.80
2018,07,27,13,54,29.90
2018,07,27,13,55,29.90
2018,07,27,13,56,29.90
2018,07,27,13,57,29.90
2018,07,27,13,58,29.90
2018,07,27,13,59,29.90
2018,07,27,14,00,29.80
2018,07,27,14,01,29.70
2018,07,27,14,02,29.70
2018,07,27,14,03,29.80
2018,07,27,14,04,29.90
2018,07,27,14,05,29.90
2018,07,27,14,06,30.00
2018,07,27,14,07,30.10
2018,07,27,14,08,30.20
2018,07,27,14,09,30.20
2018,07,27,14,10,30.30
2018,07,27,14,11,30.30
2018,07,27,14,12,30.30
2018,07,27,14,13,30.30
2018,07,27,14,14,30.20
2018,07,27,14,15,30.20
2018,07,27,14,16,30.10
2018,07,27,14,17,30.10
2018,07,27,14,18,30.10
2018,07,27,14,19,30.10
2018,07,27,14,20,30.10
2018,07,27,14,21,30.00
2018,07,27,14,22,30.00
2018,07,27,14,23,30.10
2018,07,27,14,24,30.00
2018,07,27,14,25,30.00
2018,07,27,14,26,30.10
2018,07,27,14,27,30.20
2018,07,27,14,28,30.20
2018,07,27,14,29,30.30
2018,07,27,14,30,30.30
2018,07,27,14,31,30.40
2018,07,27,14,32,30.40
2018,07,27,14,33,30.40
2018,07,27,14,34,30.50
2018,07,27,14,35,30.60
2018,07,27,14,36,30.60
2018,07,27,14,37,30.70
2018,07,27,14,38,30.70
2018,07,27,14,39,30.70
2018,07,27,14,40,30.80
2018,07,27,14,41,30.80
2018,07,27,14,42,30.80
2018,07,27,14,43,30.70
2018,07,27,14,44,30.70
2018,07,27,14,45,30.70
2018,07,27,14,46,30.70
2018,07,27,14,47,30.70
2018,07,27,14,48,30.70
2018,07,27,14,49,30.80
2018,07,27,14,50,30.80
2018,07,27,14,51,30.80
2018,07,27,14,52,30.90
2018,07,27,14,53,30.90
2018,07,27,14,54,30.90
2018,07,27,14,55,30.90
2018,07,27,14,56,30.80
2018,07,27,14,57,30.80
2018,07,27,14,58,30.80
2018,07,27,14,59,30.80
2018,07,27,15,00,30.80
2018,07,27,15,01,30.80
2018,07,27,15,02,30.90
2018,07,27,15,03,30.90
2018,07,27,15,04,30.90
2018,07,27,15,05,30.90
2018,07,27,15,06,31.00
2018,07,27,15,07,31.00
2018,07,27,15,08,31.10
2018,07,27,15,09,31.20
2018,07,27,15,10,31.20
2018,07,27,15,11,31.30
2018,07,27,15,12,31.30
2018,07,27,15,13,31.20
2018,07,27,15,14,31.20
2018,07,27,15,15,31.10
2018,07,27,15,16,31.10
2018,07,27,15,17,31.10
2018,07,27,15,18,31.10
2018,07,27,15,19,31.10
2018,07,27,15,20,31.00
2018,07,27,15,21,31.00
2018,07,27,15,22,31.00
2018,07,27,15,23,31.00
2018,07,27,15,24,31.00
2018,07,27,15,25,30.90
2018,07,27,15,26,30.90
2018,07,27,15,27,30.90
2018,07,27,15,28,30.90
2018,07,27,15,29,31.00
2018,07,27,15,30,31.00
2018,07,27,15,31,31.00
2018,07,27,15,32,31.00
2018,07,27,15,33,31.00
2018,07,27,15,34,31.00
2018,07,27,15,35,31.00
2018,07,27,15,36,31.00
2018,07,27,15,37,31.00
2018,07,27,15,38,31.00
2018,07,27,15,39,31.00
2018,07,27,15,40,30.90
2018,07,27,15,41,30.90
2018,07,27,15,42,30.90
2018,07,27,15,43,30.90
2018,07,27,15,44,30.90
2018,07,27,15,45,30.90
2018,07,27,15,46,30.90
2018,07,27,15,47,31.00
2018,07,27,15,48,31.00
2018,07,27,15,49,31.10
2018,07,27,15,50,31.10
2018,07,27,15,51,31.10
2018,07,27,15,52,31.20
2018,07,27,15,53,31.20
2018,07,27,15,54,31.20
2018,07,27,15,55,31.30
2018,07,27,15,56,31.20
2018,07,27,15,57,31.20
2018,07,27,15,58,31.20
2018,07,27,15,59,31.20
2018,07,27,16,00,31.20
2018,07,27,16,01,31.30
2018,07,27,16,02,31.30
2018,07,27,16,03,31.30
2018,07,27,16,04,31.30
2018,07,27,16,05,31.30
2018,07,27,16,06,31.30
2018,07,27,16,07,31.20
2018,07,27,16,08,31.30
2018,07,27,16,09,31.30
2018,07,27,16,10,31.30
2018,07,27,16,11,31.40
2018,07,27,16,12,31.40
2018,07,27,16,13,31.40
2018,07,27,16,14,31.50
2018,07,27,16,15,31.50
2018,07,27,16,16,31.50
2018,07,27,16,17,31.40
2018,07,27,16,18,31.40
2018,07,27,16,19,31.40
2018,07,27,16,20,31.40
2018,07,27,16,21,31.40
2018,07,27,16,22,31.40
2018,07,27,16,23,31.40
2018,07,27,16,24,31.40
2018,07,27,16,25,31.40
2018,07,27,16,26,31.30
2018,07,27,16,27,31.30
2018,07,27,16,28,31.30
2018,07,27,16,29,31.30
2018,07,27,16,30,31.30
2018,07,27,16,31,31.30
2018,07,27,16,32,31.30
2018,07,27,16,33,31.40
2018,07,27,16,34,31.40
2018,07,27,16,35,31.50
2018,07,27,16,36,31.50
2018,07,27,16,37,31.50
2018,07,27,16,38,31.60
2018,07,27,16,39,31.60
2018,07,27,16,40,31.60
2018,07,27,16,41,31.60
2018,07,27,16,42,31.60
2018,07,27,16,43,31.60
2018,07,27,16,44,31.60
2018,07,27,16,45,31.70
2018,07,27,16,46,31.70
2018,07,27,16,47,31.70
2018,07,27,16,48,31.70
2018,07,27,16,49,31.70
2018,07,27,16,50,31.70
2018,07,27,16,51,31.70
2018,07,27,16,52,31.70
2018,07,27,16,53,31.70
2018,07,27,16,54,31.80
2018,07,27,16,55,31.80
2018,07,27,16,56,31.80
2018,07,27,16,57,31.90
2018,07,27,16,58,31.90
2018,07,27,16,59,31.90
2018,07,27,17,00,31.90
2018,07,27,17,01,31.90
2018,07,27,17,02,31.90
2018,07,27,17,03,31.90
2018,07,27,17,04,31.90
2018,07,27,17,05,32.00
2018,07,27,17,06,32.00
2018,07,27,17,07,32.00
2018,07,27,17,08,32.00
2018,07,27,17,09,32.00
2018,07,27,17,10,32.00
2018,07,27,17,11,31.90
2018,07,27,17,12,31.80
2018,07,27,17,13,31.80
2018,07,27,17,14,31.80
2018,07,27,17,15,31.80
2018,07,27,17,16,31.80
2018,07,27,17,17,31.70
2018,07,27,17,18,31.70
2018,07,27,17,19,31.70